Погода в Помоздине

Россия / Республика Коми     62°11′42″N   54°11′06″E
темп.,
°C
ветер,
м/с
пор.,
м/с
влажн.,
%
обл.,
%
осадки,
мм/ч
давл.,
гПа
погр.,
м
13 мая, чт
чт1300:00+14з3107774 0.0 1024202
03:00+12з258555 0.0 102577
06:00+17з23665 0.0 1025206
09:00+23зюз244711 0.0 1024757
12:00+25зюз35355 0.0 10241792
15:00+26юз46327 0.0 10222026
18:00+24юз37410 0.0 1021238
21:00+17юз27550 0.0 102195
14 мая, пт
пт1400:00+16юз256254 0.0 102079
03:00+16ююз2863100 0.0 1019170
06:00+19юз38575 0.0 1019310
09:00+24юз5740100 0.0 10181089
12:00+23ююз2650100 0.0 1017825
15:00+22юз3853100 0.1 1015303
18:00+22зюз3855100 0.1 10131178
21:00+17зюз31173100 0.3 1015291
15 мая, сб
сб1500:00+15зюз3978100 0.0 1015231
03:00+14зюз2581100 0.0 1015104
06:00+16зюз267199 0.0 1016257
09:00+22з48415 0.0 10161857
12:00+24зюз573289 0.0 10152125
15:00+24з483396 0.0 10142744
18:00+22ю0047100 0.0 101212
21:00+17ююв2462100 0.0 101166
16 мая, вс
вс1600:00+15юз1294100 3.8 101077
03:00+15зюз3994100 4.3 1009356
06:00+17юз3886100 0.1 1008476
09:00+19зюз5107683 0.8 10071196
12:00+23з6125327 0.3 10081921
15:00+22ссз585318 0.5 10071323
18:00+15св36785 2.8 1009445
21:00+12всв3790100 4.2 1010360
17 мая, пн
пн1700:00+11всв3694100 2.3 1010289
03:00+9св2595100 2.4 1011256
06:00+10св3492100 1.9 1011367
09:00+10св3490100 2.2 1013503
12:00+9св4687100 0.6 1014510
15:00+9св4881100 0.8 1016593
18:00+9св3781100 0.0 1017732
21:00+8св3677100 0.0 1019479